Location: Unspecified
(0.0000°N, 0.0000°E)
Time: 07:53:20
(UTC+00:00)

STARLINK-2736 - Pass Details

Date: 12 June 2021
Orbit: 348 x 351 km, 53.1° (Epoch: 21 June)

Event Time Altitude Azimuth Distance (km) Brightness Sun altitude
Exits shadow 05:00:57 10° 185° (S) 1,278 5.2 -13.5°
Maximum altitude 05:03:26 28° 124° (SE) 690 4.5 -13.0°
Drops below altitude 10° 05:05:59 10° 62° (ENE) 1,297 7.1 -12.4°
Sets 05:08:08 0° 50° (NE) 2,134 8.3 -11.9°
